Weather History for Tel Aviv, Israel

Change the Weather History Date:

Tuesday, July 30, 2013

  Actual Average Record
Temperature  
Mean Temperature 82 °F -  
Max Temperature 89 °F 87 °F 96 °F (2002)
Min Temperature 75 °F 73 °F 69 °F (1996)
Cooling Degree Days 17    
Growing Degree Days 32 (Base 50)    
Moisture  
Dew Point 69 °F    
Average Humidity 64    
Maximum Humidity 78    
Minimum Humidity 40    
Precipitation  
Precipitation 0.00 in - - ()
Sea Level Pressure  
Sea Level Pressure 29.73 in    
Wind  
Wind Speed 6 mph ()    
Max Wind Speed 15 mph    
Max Gust Speed -    
Visibility 6.2 miles    
Events      
Averages and records for this station are not official NWS values.
T = Trace of Precipitation, MM = Missing Value Source: Averaged Metar Reports

Daily Weather History Graph

Daily Weather History Graph

Search for Another Location

Airport:

Trip Planner

Search our weather history database for the weather conditions in past years. The results will help you decide how hot, cold, wet, or windy it might be!

Date:

Astronomy

Jul. 30, 2013 Rise Set
Actual Time 5:54 AM IDT 7:38 PM IDT
Civil Twilight 5:27 AM IDT 8:05 PM IDT
Nautical Twilight 4:55 AM IDT 8:37 PM IDT
Astronomical Twilight 4:21 AM IDT 9:11 PM IDT
Moon No Moon Rise 1:41 PM IDT (7/30)
Length of Visible Light 14h 38m
Length of Day
13h 44m
Last Quarter, 44% of the Moon is Illuminated
Jul 30
Last Quarter
Aug 7
New
Aug 14
First Quarter
Aug 21
Full
Aug 28
Last Quarter

Hourly Weather History & Observations

Time (IDT) Temp. Heat Index Dew Point Humidity Pressure Visibility Wind Dir Wind Speed Gust Speed Precip Events Conditions
12:20 AM 80.6 °F 83.9 °F 69.8 °F 70% 29.77 in - Variable 3.5 mph - N/A   Clear
12:50 AM 78.8 °F - 69.8 °F 74% 29.77 in - Variable 2.3 mph - N/A   Clear
1:20 AM 78.8 °F - 69.8 °F 74% 29.77 in - Variable 3.5 mph - N/A   Clear
1:50 AM 78.8 °F - 69.8 °F 74% 29.77 in - Variable 1.2 mph - N/A   Clear
2:20 AM 77.0 °F - 69.8 °F 78% 29.77 in - SSE 4.6 mph - N/A   Clear
2:50 AM 77.0 °F - 69.8 °F 78% 29.77 in - SSE 4.6 mph - N/A   Clear
3:00 AM 78 °F - 69 °F 67% 29.77 in 6 mi SSE 4.6 mph - -  
3:20 AM 77.0 °F - 68.0 °F 74% 29.74 in - SSE 8.1 mph - N/A   Clear
3:50 AM 77.0 °F - 68.0 °F 74% 29.74 in - SSE 6.9 mph - N/A   Clear
4:20 AM 77.0 °F - 68.0 °F 74% 29.74 in 6.2 mi SSE 6.9 mph - N/A   Partly Cloudy
4:50 AM 77.0 °F - 68.0 °F 74% 29.74 in 6.2 mi SE 4.6 mph - N/A   Partly Cloudy
5:20 AM 77.0 °F - 68.0 °F 74% 29.74 in 6.2 mi SSE 4.6 mph - N/A   Partly Cloudy
5:50 AM 77.0 °F - 68.0 °F 74% 29.74 in 6.2 mi SSE 5.8 mph - N/A   Partly Cloudy
6:20 AM 75.2 °F - 68.0 °F 78% 29.74 in 6.2 mi SSE 8.1 mph - N/A   Partly Cloudy
6:50 AM 77.0 °F - 68.0 °F 74% 29.74 in 6.2 mi SSE 6.9 mph - N/A   Partly Cloudy
7:20 AM 77.0 °F - 68.0 °F 74% 29.77 in 6.2 mi SSE 8.1 mph - N/A   Scattered Clouds
7:50 AM 78.8 °F - 69.8 °F 74% 29.77 in 6.2 mi South 5.8 mph - N/A   Scattered Clouds
8:20 AM 80.6 °F 84.6 °F 71.6 °F 74% 29.77 in 6.2 mi South 8.1 mph - N/A   Scattered Clouds
8:50 AM 82.4 °F 86.3 °F 69.8 °F 66% 29.77 in 6.2 mi South 5.8 mph - N/A   Scattered Clouds
9:00 AM 82 °F - 70 °F 60% 29.77 in 6 mi South 5.8 mph - -   Partly Cloudy
9:20 AM 84.2 °F 88.4 °F 69.8 °F 62% 29.74 in 6.2 mi SSW 4.6 mph - N/A   Scattered Clouds
9:50 AM 84.2 °F 87.3 °F 68.0 °F 58% 29.74 in 6.2 mi SW 5.8 mph - N/A   Scattered Clouds
10:20 AM 86.0 °F 89.4 °F 68.0 °F 55% 29.74 in 6.2 mi WSW 6.9 mph - N/A   Partly Cloudy
10:50 AM 86.0 °F 89.4 °F 68.0 °F 55% 29.74 in 6.2 mi WSW 8.1 mph - N/A   Partly Cloudy
11:20 AM 87.8 °F 92.6 °F 69.8 °F 55% 29.74 in 6.2 mi SW 10.4 mph - N/A   Partly Cloudy
11:50 AM 87.8 °F 91.4 °F 68.0 °F 52% 29.74 in 6.2 mi West 10.4 mph - N/A   Partly Cloudy
12:20 PM 87.8 °F 91.4 °F 68.0 °F 52% 29.74 in 6.2 mi West 11.5 mph - N/A   Partly Cloudy
12:50 PM 87.8 °F 91.4 °F 68.0 °F 52% 29.74 in 6.2 mi West 15.0 mph - N/A   Partly Cloudy
1:20 PM 87.8 °F 90.4 °F 66.2 °F 49% 29.74 in 6.2 mi West 13.8 mph - N/A   Partly Cloudy
1:50 PM 87.8 °F 91.4 °F 68.0 °F 52% 29.71 in 6.2 mi West 12.7 mph - N/A   Partly Cloudy
2:20 PM 86.0 °F 89.4 °F 68.0 °F 55% 29.71 in 6.2 mi West 12.7 mph - N/A   Partly Cloudy
2:50 PM 87.8 °F 90.4 °F 66.2 °F 49% 29.71 in 6.2 mi West 12.7 mph - N/A   Partly Cloudy
3:00 PM 88 °F - 67 °F 40% 29.72 in 6 mi West 12.7 mph - -   Scattered Clouds
3:20 PM 89.6 °F 90.1 °F 62.6 °F 40% 29.71 in 6.2 mi West 12.7 mph - N/A   Partly Cloudy
3:50 PM 87.8 °F 90.4 °F 66.2 °F 49% 29.71 in - West 13.8 mph - N/A   Clear
4:20 PM 87.8 °F 88.5 °F 62.6 °F 43% 29.71 in - WNW 15.0 mph - N/A   Clear
4:50 PM 86.0 °F 89.4 °F 68.0 °F 55% 29.71 in - WNW 13.8 mph - N/A   Clear
5:20 PM 86.0 °F 90.4 °F 69.8 °F 58% 29.71 in - WNW 12.7 mph - N/A   Clear
5:50 PM 84.2 °F 88.4 °F 69.8 °F 62% 29.68 in 6.2 mi NW 12.7 mph - N/A   Partly Cloudy
6:20 PM 84.2 °F 89.6 °F 71.6 °F 66% 29.71 in 6.2 mi WNW 11.5 mph - N/A   Partly Cloudy
6:50 PM 84.2 °F 88.4 °F 69.8 °F 62% 29.71 in 6.2 mi NW 9.2 mph - N/A   Partly Cloudy
7:20 PM 82.4 °F 86.3 °F 69.8 °F 66% 29.71 in 6.2 mi WNW 9.2 mph - N/A   Partly Cloudy
7:50 PM 82.4 °F 86.3 °F 69.8 °F 66% 29.71 in 6.2 mi NW 5.8 mph - N/A   Partly Cloudy
8:20 PM 82.4 °F 86.3 °F 69.8 °F 66% 29.71 in 6.2 mi WNW 4.6 mph - N/A   Partly Cloudy
8:50 PM 80.6 °F 83.9 °F 69.8 °F 70% 29.71 in - WNW 4.6 mph - N/A   Clear
9:20 PM 80.6 °F 83.9 °F 69.8 °F 70% 29.71 in - Variable 3.5 mph - N/A   Clear
9:50 PM 80.6 °F 83.9 °F 69.8 °F 70% 29.74 in - Variable 3.5 mph - N/A   Clear
10:20 PM 80.6 °F 83.9 °F 69.8 °F 70% 29.71 in - Variable 3.5 mph - N/A   Clear
10:50 PM 80.6 °F 83.9 °F 69.8 °F 70% 29.71 in - Variable 3.5 mph - N/A   Clear
11:20 PM 78.8 °F - 69.8 °F 74% 29.71 in - South 4.6 mph - N/A   Clear
11:50 PM 78.8 °F - 69.8 °F 74% 29.71 in - South 4.6 mph - N/A   Clear